[[{"header":{"parameterUnit":"m.s-1","parameterCategory":1,"la1":30.2991,"la2":30.254,"lo1":-89.0895,"lo2":-89.0444,"dy":0.0017,"dx":0.0017,"nx":28,"ny":28,"refTime":"2025-11-09T09:00:00:Z","depth":0,"parameterNumber":2,"parameterNumberName":"U-component_of_WINDS"},"data":[0,0,0,0,0,0,0,0,0,0,0,0,0,0,0,0,0,0,0,0,0,0,0,0,0,0,0,0,0,0,0,0,0,0,0,0,0,0,0,0,0,0,0,0,0,0,0,0,0,0,0,0,0,0,0,0,0,0,2.6415,2.6416,0,2.6455,2.6456,2.6456,2.643,2.6428,2.6427,2.6426,2.6464,2.6466,2.6468,0,0,0,0,0,0,0,0,0,0,0,0,0,2.6315,2.6317,2.6415,2.6416,2.6416,2.6455,2.6456,2.6456,2.643,2.6428,2.6427,2.6426,2.6463,2.6466,2.6469,0,0,0,0,0,0,0,0,0,0,0,0,0,2.6357,2.6317,2.6415,2.6408,2.6408,2.6455,2.6456,2.6456,2.643,2.6428,2.6426,2.6425,2.6463,2.6466,2.6469,2.6525,0,0,2.6479,2.648,0,0,0,0,0,0,0,0,2.6355,2.6361,2.6408,2.6408,2.6408,2.6436,2.6434,2.6479,2.6431,2.6421,2.6426,2.6424,2.6456,2.646,2.6471,2.6527,2.6528,2.6479,2.6481,2.6482,2.6483,0,0,0,0,0,0,0,2.6352,2.6359,2.6431,2.6409,2.6409,2.6402,2.6406,2.6443,2.6448,2.6422,2.642,2.6426,2.6456,2.6468,2.6472,2.6529,2.6479,2.6482,2.6484,2.6485,2.6634,2.6636,0,0,0,0,0,0,2.635,2.6356,2.643,2.6432,2.6376,2.6405,2.641,2.6429,2.6448,2.6449,2.6427,2.6424,2.6463,2.6468,2.6473,2.654,2.6482,2.6485,2.6487,2.6632,2.6635,2.6637,0,0,0,0,0,0,2.6348,2.6356,2.6428,2.6394,2.6403,2.6409,2.643,2.643,2.6443,2.6452,2.6452,2.6439,2.6462,2.6468,2.6513,2.6541,2.6487,2.649,2.663,2.6633,2.6636,2.6675,0,0,0,0,0,0,2.6345,2.6356,2.6377,2.6395,2.6404,2.6468,2.6432,2.6432,2.6449,2.6445,2.6463,2.6464,2.6461,2.6508,2.6516,2.6545,2.6492,2.6627,2.6631,2.6635,2.6671,2.6679,2.6686,0,0,0,0,0,2.6341,2.6386,2.6378,2.6387,2.6432,2.6469,2.6475,2.6472,2.6451,2.6473,2.6479,2.6463,2.6537,2.6513,2.6521,2.6551,2.6625,2.663,2.6634,2.6668,2.6677,2.6686,0,0,0,0,0,0,2.637,2.6388,2.638,2.6431,2.6449,2.6465,2.6491,2.6482,2.6505,2.65,2.6495,2.6499,2.6545,2.6553,2.6526,2.6608,2.6578,2.6584,2.66,2.661,2.6617,2.6613,2.6495,0,0,0,0,0,2.6383,2.6412,2.6426,2.647,2.648,2.6485,2.6501,2.6497,2.6515,2.6522,2.6531,2.6548,2.6575,2.6593,2.6619,2.6673,2.6676,2.6698,2.6705,2.6711,2.6716,2.6746,2.6756,2.6652,2.6652,2.6652,0,0,2.6408,2.6422,2.644,2.6477,2.649,2.6521,2.6491,2.6524,2.6547,2.6526,2.6569,2.6577,2.6596,2.6646,2.6668,2.6653,2.6747,2.6717,2.6722,2.6724,2.6752,2.6762,2.6771,2.6655,2.6654,2.6654,0,0,2.647,2.6484,2.6523,2.6537,2.6559,2.6562,2.6571,2.6589,2.6594,2.6637,2.6623,2.665,2.6697,2.6711,2.6724,2.6795,2.6782,2.6804,2.6841,2.6871,2.6879,2.6886,2.6911,2.692,2.6809,2.681,2.681,0,2.6499,2.6545,2.6543,2.6579,2.6595,2.658,2.6619,2.6633,2.6662,2.6673,2.6657,2.6717,2.6728,2.6782,2.6799,2.6811,2.6821,2.6801,2.6878,2.6885,2.6892,2.6916,2.6925,2.6812,2.6812,2.6811,2.6811,0,2.658,2.6612,2.6641,2.667,2.669,2.6727,2.673,2.6751,2.6746,2.6751,2.6796,2.681,2.6839,2.6851,2.6847,2.6905,2.6895,2.6879,2.6849,2.6904,2.6927,2.6936,2.6816,2.6815,2.6814,2.6813,0,0,2.6658,2.6688,2.6699,2.6712,2.6736,2.6761,2.6798,2.6827,2.6845,2.6865,2.6896,2.6937,2.6923,2.6938,2.6935,2.6962,2.7017,2.6942,2.6942,2.6955,2.7082,2.7093,2.7104,2.701,2.7011,2.7013,2.708,0,2.6721,2.6786,2.6787,2.6846,2.6876,2.6865,2.6897,2.6915,2.6921,2.6948,2.6954,2.6984,2.6963,2.6972,2.6998,2.7005,2.7042,2.7,2.7037,2.7038,2.7031,2.7116,2.7127,2.719,2.7089,2.7091,2.7092,0,2.6803,2.6828,2.6891,2.6912,2.6925,2.6954,2.6981,2.7007,2.7028,2.7031,2.705,2.7043,2.7081,2.7052,2.7103,2.7075,2.709,2.7097,2.7099,2.7101,2.7067,2.7119,2.721,2.7219,2.7106,2.7104,2.7103,0,2.6853,2.6903,2.6947,2.696,2.6985,2.7006,2.7018,2.7037,2.7055,2.7079,2.7091,2.7119,2.7134,2.7156,2.7158,2.7137,2.721,2.7181,2.7213,2.7213,2.7227,2.7226,2.7322,2.724,2.724,2.724,2.7239,0,2.6923,2.6962,2.6971,2.6998,2.7041,2.7042,2.7085,2.7095,2.7112,2.7141,2.7133,2.716,2.7161,2.7189,2.7191,2.7233,2.724,2.7243,2.7243,2.7243,2.7243,2.7252,2.7247,2.7242,2.7242,2.7241,2.7241,0,2.6985,2.6993,2.704,2.7062,2.7069,2.71,2.7118,2.7144,2.7151,2.7187,2.7196,2.7206,2.7239,2.7244,2.7281,2.7282,2.7334,2.7329,2.7327,2.7326,2.7357,2.7354,2.7461,2.7475,2.7385,2.7386,2.7387,0,2.7028,2.7058,2.7084,2.7103,2.7117,2.7148,2.7167,2.717,2.719,2.7217,2.724,2.7272,2.7298,2.735,2.7361,2.739,2.7386,2.7421,2.739,2.739,2.7385,2.7383,2.7386,2.7427,2.7428,2.7428,2.7429,0,2.7104,2.7107,2.7135,2.7166,2.719,2.7213,2.7236,2.7252,2.7258,2.7281,2.7315,2.7335,2.7375,2.7407,2.7437,2.7448,2.744,2.7439,2.7448,2.7448,2.7445,2.7447,2.7342,2.7436,2.7436,2.7435,2.7435,2.7434,2.7157,2.7184,2.7207,2.7239,2.7257,2.7279,2.7305,2.7316,2.7345,2.7378,2.7378,2.7415,2.7437,2.7476,2.749,2.7519,2.7507,2.752,2.7523,2.7526,2.7529,2.7442,2.7524,2.7524,2.7524,2.7524,2.7524,0,2.7232,2.7247,2.7277,2.731,2.7336,2.7328,2.7353,2.7374,2.7408,2.7429,2.7456,2.7495,2.7527,2.7541,2.7572,2.7593,2.759,2.7601,2.7598,2.7601,2.7538,2.7527,2.7603,2.7603,2.7603,2.7603,2.7603,2.7603,2.7274,2.7318,2.7325,2.7378,2.7393,2.743,2.7445,2.7465,2.7483,2.7528,2.7555,2.7564,2.7583,2.7616,2.7645,2.7648,2.766,2.7672,2.7674,2.7614,2.7606,2.7598,2.7587,2.7675,2.7675,2.7735,2.7735,2.7736]},{"header":{"parameterUnit":"m.s-1","parameterCategory":1,"la1":30.2991,"la2":30.254,"lo1":-89.0895,"lo2":-89.0444,"dy":0.0017,"dx":0.0017,"nx":28,"ny":28,"refTime":"2025-11-09T09:00:00:Z","depth":0,"parameterNumber":3,"parameterNumberName":"V-component_of_WINDS"},"data":[0,0,0,0,0,0,0,0,0,0,0,0,0,0,0,0,0,0,0,0,0,0,0,0,0,0,0,0,0,0,0,0,0,0,0,0,0,0,0,0,0,0,0,0,0,0,0,0,0,0,0,0,0,0,0,0,0,0,-7.7948,-7.795,0,-7.814,-7.8143,-7.8145,-7.8053,-7.8048,-7.8043,-7.8038,-7.8232,-7.8241,-7.8251,0,0,0,0,0,0,0,0,0,0,0,0,0,-7.7496,-7.7505,-7.7947,-7.795,-7.7952,-7.814,-7.8143,-7.8145,-7.8053,-7.8047,-7.8041,-7.8036,-7.8229,-7.824,-7.8252,0,0,0,0,0,0,0,0,0,0,0,0,0,-7.7691,-7.7508,-7.7947,-7.7929,-7.793,-7.814,-7.8143,-7.8146,-7.8055,-7.8047,-7.804,-7.8033,-7.8225,-7.8239,-7.8253,-7.8491,0,0,-7.8298,-7.8304,0,0,0,0,0,0,0,0,-7.768,-7.7708,-7.7929,-7.7931,-7.7932,-7.8065,-7.8054,-7.8262,-7.8057,-7.8007,-7.8038,-7.8029,-7.8182,-7.82,-7.8252,-7.85,-7.8508,-7.8299,-7.8308,-7.8314,-7.8319,0,0,0,0,0,0,0,-7.7667,-7.7699,-7.8024,-7.7933,-7.7934,-7.791,-7.793,-7.8093,-7.8133,-7.8011,-7.8005,-7.8029,-7.8181,-7.8238,-7.8256,-7.8511,-7.8299,-7.8312,-7.8321,-7.8327,-7.8963,-7.8971,0,0,0,0,0,0,-7.7654,-7.7688,-7.8017,-7.8029,-7.7785,-7.7925,-7.7946,-7.803,-7.8131,-7.814,-7.8035,-7.8024,-7.8217,-7.8239,-7.8262,-7.8547,-7.8314,-7.8328,-7.8336,-7.8955,-7.8965,-7.8974,0,0,0,0,0,0,-7.7645,-7.7685,-7.801,-7.7857,-7.7897,-7.794,-7.8034,-7.8037,-7.8094,-7.815,-7.8156,-7.8086,-7.8212,-7.8242,-7.8435,-7.8552,-7.8335,-7.8348,-7.8946,-7.8958,-7.8969,-7.9118,0,0,0,0,0,0,-7.7632,-7.7682,-7.7773,-7.786,-7.7905,-7.8181,-7.8042,-7.8046,-7.812,-7.8107,-7.8199,-7.8207,-7.8208,-7.8414,-7.8449,-7.8568,-7.8359,-7.8935,-7.8951,-7.8966,-7.9103,-7.9134,-7.9161,0,0,0,0,0,-7.7617,-7.7807,-7.7779,-7.7819,-7.8021,-7.8188,-7.8214,-7.8212,-7.813,-7.8222,-7.8257,-7.8204,-7.8534,-7.8434,-7.8474,-7.8599,-7.8928,-7.8947,-7.8964,-7.909,-7.9128,-7.916,0,0,0,0,0,0,-7.7732,-7.7818,-7.7787,-7.8012,-7.8093,-7.8172,-7.8288,-7.8252,-7.8358,-7.8341,-7.8333,-7.8355,-7.8555,-7.8596,-7.8484,-7.8834,-7.8718,-7.8745,-7.88,-7.8837,-7.8865,-7.8851,-7.8371,0,0,0,0,0,-7.7783,-7.7913,-7.7981,-7.8172,-7.8215,-7.8245,-7.8317,-7.8309,-7.8393,-7.8426,-7.8476,-7.8558,-7.868,-7.876,-7.8876,-7.9109,-7.9127,-7.9214,-7.9243,-7.9266,-7.929,-7.9416,-7.9455,-7.9034,-7.9034,-7.9034,0,0,-7.7891,-7.7954,-7.8036,-7.8197,-7.8259,-7.8392,-7.8274,-7.842,-7.8518,-7.8448,-7.8634,-7.8674,-7.8764,-7.8979,-7.9076,-7.9019,-7.941,-7.929,-7.9308,-7.9319,-7.9439,-7.9478,-7.9514,-7.9047,-7.9044,-7.9042,0,0,-7.8155,-7.8217,-7.8383,-7.8448,-7.8544,-7.8563,-7.8603,-7.8687,-7.8711,-7.8898,-7.8848,-7.8964,-7.9174,-7.9241,-7.9303,-7.9593,-7.9548,-7.9631,-7.9781,-7.9904,-7.9937,-7.9966,-8.007,-8.0107,-7.9654,-7.9654,-7.9654,0,-7.8277,-7.8477,-7.8472,-7.8623,-7.8694,-7.8638,-7.8805,-7.8868,-7.8997,-7.9047,-7.8982,-7.9245,-7.9302,-7.9531,-7.9602,-7.9654,-7.9699,-7.962,-7.9933,-7.9962,-7.9989,-8.0088,-8.0127,-7.9664,-7.9662,-7.9661,-7.9661,0,-7.8621,-7.876,-7.8883,-7.901,-7.9095,-7.9253,-7.9272,-7.9359,-7.9343,-7.9368,-7.9559,-7.9626,-7.9753,-7.9807,-7.9793,-8.0035,-7.9996,-7.9933,-7.9816,-8.0039,-8.0131,-8.0169,-7.9677,-7.9674,-7.9671,-7.9668,0,0,-7.8963,-7.9086,-7.9131,-7.9188,-7.929,-7.9397,-7.9552,-7.9678,-7.9753,-7.9843,-7.9973,-8.0152,-8.0094,-8.0164,-8.0156,-8.0264,-8.049,-8.0187,-8.0189,-8.0241,-8.076,-8.0807,-8.0851,-8.0461,-8.0468,-8.0473,-8.0752,0,-7.9235,-7.9508,-7.9508,-7.976,-7.9888,-7.9836,-7.9971,-8.0048,-8.0076,-8.0188,-8.0217,-8.0345,-8.0258,-8.03,-8.0405,-8.044,-8.0594,-8.042,-8.058,-8.0586,-8.0559,-8.0899,-8.095,-8.121,-8.0788,-8.0794,-8.0799,0,-7.9588,-7.9692,-7.9956,-8.004,-8.0094,-8.0215,-8.0331,-8.0439,-8.0524,-8.0537,-8.0616,-8.0592,-8.0748,-8.0627,-8.0843,-8.0725,-8.079,-8.0817,-8.0827,-8.0842,-8.0706,-8.0923,-8.1293,-8.1332,-8.0856,-8.0851,-8.0847,0,-7.9811,-8.0016,-8.0201,-8.0252,-8.0354,-8.044,-8.0486,-8.0565,-8.0641,-8.0741,-8.079,-8.0907,-8.0972,-8.1062,-8.107,-8.0981,-8.1287,-8.1167,-8.1301,-8.1302,-8.1368,-8.1364,-8.1753,-8.1411,-8.141,-8.1409,-8.1408,0,-8.0114,-8.0278,-8.0303,-8.0417,-8.0599,-8.0597,-8.0777,-8.0815,-8.0885,-8.1005,-8.0966,-8.1079,-8.1083,-8.1198,-8.1205,-8.1382,-8.1411,-8.1425,-8.1425,-8.1429,-8.1427,-8.1471,-8.1453,-8.142,-8.1417,-8.1415,-8.1414,0,-8.0394,-8.0418,-8.0616,-8.0696,-8.072,-8.0851,-8.0919,-8.1027,-8.1051,-8.1203,-8.1238,-8.1276,-8.1409,-8.1426,-8.1582,-8.1586,-8.18,-8.178,-8.1772,-8.1769,-8.1902,-8.189,-8.2334,-8.2392,-8.2011,-8.2015,-8.2018,0,-8.0586,-8.0712,-8.0806,-8.0884,-8.0935,-8.1061,-8.1138,-8.1141,-8.1223,-8.133,-8.1425,-8.1555,-8.1659,-8.1875,-8.1915,-8.2034,-8.2017,-8.2165,-8.2034,-8.2034,-8.2019,-8.2012,-8.2024,-8.219,-8.2194,-8.2197,-8.22,0,-8.0925,-8.093,-8.1044,-8.1163,-8.1256,-8.135,-8.1437,-8.1502,-8.1516,-8.161,-8.1747,-8.1828,-8.1987,-8.2116,-8.2234,-8.2279,-8.2243,-8.2241,-8.2278,-8.2283,-8.2273,-8.2281,-8.184,-8.223,-8.2227,-8.2225,-8.2224,-8.2222,-8.1167,-8.1276,-8.1359,-8.1487,-8.1553,-8.1636,-8.1742,-8.1779,-8.1894,-8.2025,-8.2019,-8.2169,-8.2251,-8.2405,-8.2459,-8.2576,-8.2527,-8.2582,-8.2595,-8.2609,-8.2622,-8.2255,-8.2597,-8.2597,-8.2596,-8.2595,-8.2594,0,-8.1503,-8.1554,-8.1672,-8.1796,-8.1897,-8.1854,-8.1949,-8.2035,-8.2169,-8.2249,-8.2352,-8.2509,-8.2635,-8.2685,-8.2808,-8.2891,-8.2878,-8.2923,-8.2917,-8.2929,-8.2659,-8.2614,-8.2933,-8.2933,-8.2933,-8.2933,-8.2932,-8.2932,-8.169,-8.1872,-8.1887,-8.2101,-8.2151,-8.2299,-8.2357,-8.2432,-8.2496,-8.2674,-8.2778,-8.281,-8.2879,-8.3006,-8.3118,-8.313,-8.3176,-8.323,-8.3234,-8.2982,-8.2947,-8.2915,-8.2873,-8.324,-8.3241,-8.3494,-8.3496,-8.3498]}]]